User: anonymous   Login
Location: Festilli
(46.4000°N, 11.6667°E)
Time: 22:39:22
(UTC+00:00)
Language:

MOS 1 - Orbit

View from above orbital plane
View from above orbital plane
View from above satellite
View from above satellite

Ground track
Ground track

The orbit data is extracted from the following two-line orbital elements,

1 17527U 87018A   21127.89496922  .00000120  00000-0  10684-3 0  9993
2 17527  99.1084 177.4189 0008026 339.2473 193.6799 14.02580826748390
Epoch (UTC): 07 May 2021 21:28:45
Eccentricity: 0.0008026
inclination: 99.1084°
perigee height: 879 km
apogee height: 891 km
right ascension of ascending node: 177.4189°
argument of perigee: 339.2473°
revolutions per day: 14.02580826
mean anomaly at epoch: 193.6799°
orbit number at epoch: 74839

The dashed part of the orbit path shows where the satellite is in the earth's shadow,  

DLR